Le nostre stazioni meteo in Italia

Pubblicità
Il mio iltempo24.it
Foggia Amendola, Italia (16261): Temperatura & dewpoint: 15.08.2019 14:00:00 - 21.08.2019 14:00:00 (CEST)Foggia Amendola, Italia (16261): velocità del vento: 15.08.2019 14:00:00 - 21.08.2019 14:00:00 (CEST)Foggia Amendola, Italia (16261): direzione del vento: 15.08.2019 14:00:00 - 21.08.2019 14:00:00 (CEST)Foggia Amendola, Italia (16261): reduced air pressure: 15.08.2019 14:00:00 - 21.08.2019 14:00:00 (CEST)Foggia Amendola, Italia (16261): visibility: 15.08.2019 14:00:00 - 21.08.2019 14:00:00 (CEST)Foggia Amendola, Italia (16261): ore di luce: 15.08.2019 14:00:00 - 21.08.2019 14:00:00 (CEST)
Data & Tempo tt [°C] td [°C] ff [km/h] ff [kn] dd ppp [hPa] vv [km] sd [min]
21.08.2019 14:00:00 34,0 15,9 16 9 E 1015,9 - 60
21.08.2019 13:00:00 34,0 13,0 13 7 E - 10 -
21.08.2019 12:00:00 33,0 13,0 9 5 SE - 10 -
21.08.2019 11:00:00 32,0 14,6 8 4 SE 1016,4 15 60
21.08.2019 10:00:00 29,0 18,0 4 2 - - 10 -
21.08.2019 09:00:00 25,0 20,0 2 1 - - 10 -
21.08.2019 08:00:00 23,0 18,8 4 2 NNO 1016,0 10 60
21.08.2019 07:00:00 21,0 18,0 4 2 NNO - 10 -
21.08.2019 06:00:00 20,0 20,0 8 4 ONO - 10 -
21.08.2019 05:00:00 21,0 21,0 5 3 NO 1016,0 10 0
21.08.2019 04:00:00 21,0 21,0 5 3 ONO - 10 -
21.08.2019 03:00:00 22,0 21,0 4 2 NNO - 10 -
21.08.2019 02:00:00 22,4 22,4 4 2 SE 1016,0 10 0
21.08.2019 01:00:00 23,0 23,0 5 3 SSO - 10 -
21.08.2019 00:00:00 23,0 22,0 8 4 OSO - 10 -
20.08.2019 23:00:00 24,0 23,2 4 2 NNO 1015,9 10 0
20.08.2019 22:00:00 24,0 23,0 8 4 ENE - 10 -
20.08.2019 21:00:00 26,0 22,0 11 6 E - 10 -
20.08.2019 20:00:00 27,0 22,8 15 8 E 1015,8 15 24
20.08.2019 19:00:00 29,0 18,0 24 13 E - 10 -
20.08.2019 18:00:00 30,0 15,0 21 11 E - 10 -
20.08.2019 17:00:00 31,8 14,9 22 12 E 1016,0 20 60
20.08.2019 16:00:00 32,0 14,0 21 11 E - 10 -
20.08.2019 15:00:00 35,0 5,0 16 9 E - 10 -
20.08.2019 14:00:00 34,8 7,0 16 9 E 1016,5 20 60
20.08.2019 13:00:00 34,0 11,0 9 5 E - 10 -
20.08.2019 12:00:00 32,0 13,0 5 3 - - 10 -
20.08.2019 11:00:00 29,6 12,1 4 2 - 1016,8 15 60
20.08.2019 10:00:00 27,0 19,0 4 2 - - 10 -
20.08.2019 09:00:00 24,0 18,0 8 4 NO - 10 -
20.08.2019 08:00:00 20,0 13,7 9 5 ONO 1017,4 20 42
20.08.2019 07:00:00 18,0 14,0 8 4 ONO - 10 -
20.08.2019 06:00:00 17,0 16,0 9 5 OSO - 10 -
20.08.2019 05:00:00 18,2 15,6 5 3 ONO 1017,1 12 -
20.08.2019 04:00:00 18,0 16,0 11 6 O - 10 -
20.08.2019 03:00:00 19,0 17,0 8 4 O - 10 -
20.08.2019 02:00:00 20,0 20,0 11 6 ONO 1017,1 12 -
20.08.2019 01:00:00 21,0 21,0 9 5 O - 10 -
20.08.2019 00:00:00 22,0 22,0 8 4 NO - 10 -
19.08.2019 23:00:00 23,6 23,6 5 3 N 1017,0 12 -
19.08.2019 22:00:00 24,0 24,0 8 4 ENE - 10 -
19.08.2019 21:00:00 25,0 25,0 5 3 E - 10 -
19.08.2019 20:00:00 27,0 24,8 16 9 E 1015,9 10 30
19.08.2019 19:00:00 28,0 24,0 18 10 E - 10 -
19.08.2019 18:00:00 30,0 21,0 24 13 E - 10 -
19.08.2019 17:00:00 31,0 20,6 21 11 E 1015,8 10 60
19.08.2019 16:00:00 32,0 19,0 18 10 E - 10 -
19.08.2019 15:00:00 34,0 19,0 16 9 E - 10 -
19.08.2019 14:00:00 33,6 15,6 11 6 E 1016,8 10 60
19.08.2019 13:00:00 33,0 15,0 13 7 ESE - 10 -
19.08.2019 12:00:00 31,0 19,0 9 5 NE - 10 -
19.08.2019 11:00:00 30,0 18,4 5 3 NE 1016,8 10 60
19.08.2019 10:00:00 28,0 21,0 4 2 - - 10 -
19.08.2019 09:00:00 25,0 20,0 8 4 NNO - 10 -
19.08.2019 08:00:00 23,0 21,3 8 4 ONO 1015,3 30 18
19.08.2019 07:00:00 20,0 19,0 8 4 NO - 10 -
19.08.2019 06:00:00 18,0 15,0 9 5 ONO - 10 -
19.08.2019 05:00:00 18,0 15,6 9 5 O 1015,7 30 -
19.08.2019 04:00:00 19,0 18,0 8 4 ONO - 10 -
19.08.2019 03:00:00 19,0 18,0 4 2 O - 10 -
19.08.2019 02:00:00 20,0 19,0 8 4 SO 1015,8 30 -
19.08.2019 01:00:00 22,0 21,0 5 3 NNE - 10 -
19.08.2019 00:00:00 23,0 21,0 9 5 NNE - 10 -
18.08.2019 23:00:00 23,2 21,5 9 5 NNE 1015,8 30 -
18.08.2019 22:00:00 23,0 21,0 8 4 E - 10 -
18.08.2019 21:00:00 24,0 21,0 9 5 E - 10 -
18.08.2019 20:00:00 26,0 20,8 18 10 E 1015,0 20 60
18.08.2019 19:00:00 28,0 20,0 22 12 E - 10 -
18.08.2019 18:00:00 30,0 19,0 21 11 E - 10 -
18.08.2019 17:00:00 30,8 16,0 22 12 E 1015,3 20 60
18.08.2019 16:00:00 32,0 14,0 18 10 E - 10 -
18.08.2019 15:00:00 33,0 12,0 16 9 E - 10 -
18.08.2019 14:00:00 33,4 11,3 15 8 E 1015,8 20 60
18.08.2019 13:00:00 32,0 9,0 5 3 - - 10 -
18.08.2019 12:00:00 31,0 10,0 5 3 - - 10 -
18.08.2019 11:00:00 29,0 11,1 4 2 N 1016,0 20 60
18.08.2019 10:00:00 27,0 13,0 4 2 - - 10 -
18.08.2019 09:00:00 23,0 18,0 5 3 NO - 10 -
18.08.2019 08:00:00 19,2 16,4 8 4 NO 1016,0 35 60
18.08.2019 07:00:00 16,0 14,0 9 5 ONO - 10 -
18.08.2019 06:00:00 16,0 15,0 9 5 OSO - 10 -
18.08.2019 05:00:00 16,4 16,4 9 5 OSO 1015,5 12 -
18.08.2019 04:00:00 17,0 16,0 8 4 O - 10 -
18.08.2019 03:00:00 17,0 16,0 5 3 OSO - 10 -
18.08.2019 02:00:00 19,8 17,2 8 4 O 1016,2 12 -
18.08.2019 01:00:00 21,0 18,0 8 4 O - 10 -
18.08.2019 00:00:00 22,0 20,0 5 3 NO - 10 -
17.08.2019 23:00:00 21,8 19,5 8 4 SO 1016,1 12 -
17.08.2019 22:00:00 23,0 20,0 8 4 SSO - 10 -
17.08.2019 21:00:00 24,0 21,0 5 3 S - 10 -
17.08.2019 20:00:00 26,0 20,3 15 8 SE 1015,2 30 36
17.08.2019 19:00:00 28,0 20,0 15 8 SE - 10 -
17.08.2019 18:00:00 30,0 19,0 15 8 ESE - 10 -
17.08.2019 17:00:00 31,6 13,4 21 11 ONO 1014,9 30 60
17.08.2019 16:00:00 32,0 11,0 21 11 O - 10 -
17.08.2019 15:00:00 32,0 14,0 13 7 NE - 10 -
17.08.2019 14:00:00 31,4 12,3 24 13 O 1014,8 30 60
17.08.2019 13:00:00 30,0 15,0 22 12 ONO - 10 -
17.08.2019 12:00:00 30,0 15,0 15 8 O - 10 -
17.08.2019 11:00:00 28,0 18,4 11 6 ONO 1015,9 30 60
17.08.2019 10:00:00 27,0 18,0 18 10 ONO - 10 -
17.08.2019 09:00:00 25,0 20,0 26 14 ONO - 10 -
17.08.2019 08:00:00 22,2 20,1 15 8 O 1015,6 15 60
17.08.2019 07:00:00 19,0 19,0 13 7 O - 10 -
17.08.2019 06:00:00 19,0 19,0 15 8 O - 10 -
17.08.2019 05:00:00 19,6 19,1 11 6 O 1015,5 15 -
17.08.2019 04:00:00 20,0 19,0 11 6 O - 10 -
17.08.2019 03:00:00 21,0 19,0 11 6 ONO - 10 -
17.08.2019 02:00:00 21,8 19,4 15 8 ONO 1015,7 20 -
17.08.2019 01:00:00 22,0 20,0 13 7 O - 10 -
17.08.2019 00:00:00 23,0 20,0 13 7 O - 10 -
16.08.2019 23:00:00 23,4 22,0 16 9 O 1015,3 15 -
16.08.2019 22:00:00 25,0 21,0 18 10 O - 10 -
16.08.2019 21:00:00 25,0 19,0 21 11 O - 10 -
16.08.2019 20:00:00 26,2 15,6 22 12 O 1013,8 15 30
16.08.2019 19:00:00 28,0 14,0 26 14 ONO - 10 -
16.08.2019 18:00:00 31,0 14,0 0 0 N - 10 -
16.08.2019 17:00:00 31,0 12,9 13 7 N 1012,7 30 60
16.08.2019 16:00:00 31,0 16,0 15 8 E - 10 -
16.08.2019 15:00:00 32,0 14,0 16 9 ONO - 10 -
16.08.2019 14:00:00 31,4 14,5 22 12 ONO 1013,7 30 60
16.08.2019 13:00:00 30,0 15,0 24 13 ONO - 10 -
16.08.2019 12:00:00 30,0 16,0 13 7 ONO - 10 -
16.08.2019 11:00:00 28,0 15,0 4 2 - 1013,8 30 60
16.08.2019 10:00:00 26,0 14,0 8 4 ONO - 10 -
16.08.2019 09:00:00 23,0 15,0 11 6 O - 10 -
16.08.2019 08:00:00 19,0 13,4 9 5 ONO 1013,5 10 60
16.08.2019 07:00:00 17,0 14,0 5 3 O - 10 -
16.08.2019 06:00:00 18,0 15,0 11 6 O - 10 -
16.08.2019 05:00:00 18,4 14,5 4 2 OSO 1013,1 10 0
16.08.2019 04:00:00 18,0 15,0 8 4 OSO - 10 -
16.08.2019 03:00:00 19,0 14,0 8 4 OSO - 10 -
16.08.2019 02:00:00 19,0 15,5 9 5 OSO 1014,1 10 0
16.08.2019 01:00:00 20,0 15,0 9 5 SSO - 10 -
16.08.2019 00:00:00 21,0 16,0 11 6 O - 10 -
15.08.2019 23:00:00 21,0 15,8 13 7 O 1013,9 10 0
15.08.2019 22:00:00 25,0 15,0 11 6 OSO - 10 -
15.08.2019 21:00:00 25,0 15,0 13 7 ONO - 10 -
15.08.2019 20:00:00 25,2 16,1 16 9 ONO 1013,2 20 12
15.08.2019 19:00:00 27,0 13,0 22 12 ONO - 10 -
15.08.2019 18:00:00 28,0 13,0 22 12 NO - 10 -
15.08.2019 17:00:00 28,6 12,9 21 11 NO 1012,8 25 60
15.08.2019 16:00:00 29,0 12,0 22 12 NO - 10 -
15.08.2019 15:00:00 29,0 13,0 28 15 NO - 10 -
15.08.2019 14:00:00 29,2 13,0 29 16 NO 1012,9 25 60

tt = Temperatura
td = dewpoint
ff = velocità del vento
dd = direzione del vento
ppp = reduced air pressure
vv = visibility
sd = ore di luce

Stazioni seguenti

WeatherPro
AMSI
MeteoEarth